Weather WX

World > North America > United States > Minnesota

Saint Charles, Minnesota Regional Weather

Lat: 43.97N, Lon: 92.06W
Wx Zone: MNZ088
Feedback

Saint Charles, MN Regional Weather

Expires:201906260800;;092178
ASUS43 KMPX 260710
RWRMN 
WEATHER ROUNDUP FOR MINNESOTA
NATIONAL WEATHER SERVICE TWIN CITIES/CHANHASSEN MN
200 AM CDT WED JUN 26 2019


NOTE: "FAIR" INDICATES FEW OR NO CLOUDS BELOW 12,000 FEET WITH NO
SIGNIFICANT WEATHER AND/OR OBSTRUCTIONS TO VISIBILITY. N/A MEANS
CURRENT SKY AND/OR WEATHER CONDITIONS ARE NOT AVAILABLE.


MNZ078>079-086>088-094>096-260800-
   Southeast Minnesota   
  
CITY           SKY/WX    TMP DP  RH WIND       PRES   REMARKS
ROCHESTER      FAIR      61  52  72 SW7       29.97S                  
RED WING       FAIR      57  54  88 CALM      29.93S                  
STANTON        FAIR      60  54  81 S5        29.94R                  
DODGE CENTER   FAIR      61  52  72 CALM      29.97S                  
WINONA         FAIR      59  55  88 CALM      29.94S                  
AUSTIN         FAIR      61  52  72 CALM      29.98S                  
PRESTON        FAIR      62  52  71 SW6       29.98S                  
$$
ABBREVIATIONS USED IN REMARKS
   TC - TEMPERATURES IN CELSIUS
  WCI - WIND CHILL INDEX
   HX - HEAT INDEX
  VSB - VISIBILITY 
$$
  

SKY/WX - Weather  TMP - Temperature  DP - Dew Point  RH - Relative Humidity
WIND - Wind Direction/Speed PRES - Barometric Pressure VSB - Visibility
WCI - Wind Chill Index E13G22 Wind - East Wind 13 mph/Gusts of 22 mph